Theta_e
321 321 323 322 336 335 337 343 350 348 345 347 345 342 342 341 341 341 341 342 340 341 341 341 342 341 342 343 340 339 339 335 340 342 343 342 342 341 341 342 341 343 342 343
317 320 323 322 327 336 337 343 348 342 346 346 345 345 346 342 340 339 341 343 340 340 341 341 342 342 342 342 341 342 341 339 338 341 341 342 342 343 341 342 345 343 340 340
316 320 322 323 334 338 337 339 346 343 349 344 347 346 343 339 340 340 341 343 343 340 341 342 343 342 342 342 341 341 344 343 342 339 340 341 342 343 342 342 343 343 341 338
317 319 321 321 322 336 337 336 341 347 348 350 344 346 341 337 341 340 340 341 343 341 341 342 342 343 343 342 342 340 341 344 342 341 341 340 341 342 342 339 344 342 340 340
319 322 321 321 322 330 333 336 338 344 346 344 347 346 337 339 338 342 341 341 341 342 341 341 342 342 342 343 343 341 341 343 343 342 339 341 339 341 341 342 340 340 342 343
319 321 320 319 320 329 326 333 332 339 340 344 340 345 341 341 342 340 342 341 341 343 342 342 342 342 343 343 343 343 341 341 341 342 342 340 340 340 342 343 343 342 343 339
319 320 320 320 321 319 321 324 330 337 340 341 334 341 340 334 337 341 341 342 342 343 343 343 343 343 343 343 343 344 344 344 343 342 343 343 342 341 342 342 342 342 343 344
319 320 321 320 320 319 319 322 322 327 333 333 331 338 336 335 337 338 339 342 343 343 344 343 343 343 343 342 344 345 345 345 344 344 345 344 342 343 342 341 343 343 343 344
318 319 320 319 320 319 322 322 321 329 329 335 336 335 333 340 337 338 340 340 343 343 343 344 343 343 342 339 343 344 345 345 344 345 346 345 340 343 343 341 342 344 344 343
319 320 319 321 320 322 322 322 329 325 335 337 339 339 336 337 341 339 339 343 344 344 344 343 343 343 342 339 341 342 343 345 344 345 346 346 340 342 343 343 342 341 343 345
316 317 320 324 322 320 322 322 318 321 327 334 337 338 333 333 334 337 338 339 342 345 344 344 343 343 343 340 340 340 344 344 344 343 345 347 343 340 345 346 341 344 344 344
316 314 318 319 321 321 322 321 318 321 326 331 332 335 332 333 333 339 340 341 341 343 344 345 345 345 344 342 341 340 340 341 341 339 345 346 347 339 341 340 342 341 343 343
316 316 319 319 318 324 325 322 318 318 325 332 333 334 333 336 340 341 341 342 343 344 345 346 345 345 345 344 342 341 342 340 342 341 344 345 347 344 340 342 343 340 341 345
320 313 319 323 320 323 331 331 323 320 325 330 330 333 335 338 337 337 341 342 340 342 342 344 344 343 344 345 344 343 343 341 341 340 340 342 345 346 344 343 343 345 341 340
318 320 316 318 319 329 330 330 327 328 327 333 328 334 334 338 333 338 338 341 343 343 343 344 345 344 345 345 345 344 343 344 343 343 344 340 340 342 345 344 343 346 346 343
322 323 325 330 328 330 331 330 329 329 326 328 327 333 332 337 336 337 338 344 345 345 346 345 343 344 344 344 345 346 345 344 344 344 346 346 343 343 341 345 344 346 345 346
325 325 323 330 330 330 331 330 330 330 329 328 332 331 331 335 340 340 342 345 345 345 345 346 345 344 344 345 347 347 347 347 346 346 346 347 345 343 341 341 341 341 345 346
324 325 324 326 328 335 329 327 330 330 329 328 330 330 333 338 340 342 343 345 345 345 347 347 346 345 338 337 340 342 345 346 347 347 347 347 347 345 344 343 343 345 346 346
323 325 328 331 329 328 332 331 331 330 330 328 327 330 332 334 338 340 343 344 345 345 345 346 347 342 340 339 340 341 342 341 339 339 340 340 340 341 341 341 342 339 340 341
322 323 327 328 331 332 327 330 329 326 327 329 333 333 334 335 334 334 342 342 345 345 344 347 345 345 345 345 346 345 344 340 341 336 333 334 339 341 342 341 340 341 340 340
325 325 327 331 330 328 326 328 328 329 328 326 335 335 335 334 334 337 340 341 344 344 347 345 346 345 341 337 333 333 334 334 335 334 335 335 338 335 332 335 341 343 341 340
326 325 325 326 329 330 328 329 328 326 329 329 336 336 336 336 338 340 341 342 344 346 345 345 340 335 334 335 335 336 336 337 338 336 338 335 336 333 332 336 341 342 342 341
330 327 324 323 325 323 327 328 330 331 331 332 336 337 337 337 339 341 342 343 341 340 338 335 334 335 333 334 336 337 337 338 339 338 337 336 336 331 331 337 339 343 342 343
328 327 329 328 326 331 330 328 329 329 333 334 334 336 337 338 340 340 339 337 335 335 334 333 330 330 329 330 334 335 338 338 339 339 338 337 335 333 331 336 342 339 342 343
325 327 329 329 330 329 330 331 332 330 332 334 335 336 337 337 340 339 336 335 334 333 331 330 330 329 325 326 327 329 331 336 338 337 335 334 332 332 331 335 338 339 338 338
324 325 328 329 330 327 328 331 331 330 330 336 336 336 336 336 339 337 335 334 332 330 330 330 324 319 320 324 332 335 335 336 335 335 334 331 331 331 336 338 337 336 335 333
Wind_Speed
2 4 10 11 7 1 4 2 4 3 6 6 8 6 8 17 20 19 14 16 29 34 31 31 28 23 22 18 15 15 15 14 17 17 13 13 12 8 4 4 8 5 6 6
5 6 13 5 7 6 6 5 5 3 3 4 6 10 6 7 15 20 17 18 27 26 32 33 30 27 24 20 19 20 17 14 14 15 13 14 12 9 7 6 6 5 6 6
8 8 4 4 3 7 6 9 7 1 6 3 3 6 7 7 15 18 20 22 21 28 34 34 33 31 26 24 22 21 18 16 11 10 13 15 13 13 11 10 9 7 5 7
6 8 8 5 7 8 7 13 13 6 5 3 4 5 5 6 7 10 18 26 22 30 38 36 35 34 31 28 23 23 18 20 14 12 14 18 17 16 12 11 11 6 7 8
8 4 3 5 14 8 12 7 16 11 3 2 4 2 6 4 9 14 22 27 30 29 38 41 39 36 31 30 25 22 20 20 19 17 15 17 17 18 16 12 13 11 10 12
8 4 7 10 6 9 3 7 8 6 4 3 6 6 6 6 10 12 17 25 32 31 39 41 37 39 36 33 29 23 22 20 20 20 19 20 19 19 18 17 16 14 11 11
6 5 4 5 5 3 6 6 3 3 0 6 1 5 9 8 8 9 19 25 33 34 39 41 39 38 35 33 31 28 25 22 22 22 21 21 20 21 19 20 18 17 14 11
4 7 4 5 7 8 5 9 6 5 4 4 4 6 6 3 3 7 14 25 30 32 42 43 38 39 34 30 29 27 27 26 24 24 23 22 22 19 21 16 19 17 16 15
5 6 5 5 5 8 5 3 5 7 4 2 3 6 10 1 7 7 9 20 29 33 37 46 41 36 36 30 32 28 23 26 24 22 24 23 23 23 19 18 17 19 18 16
5 2 5 7 4 3 8 8 3 3 5 4 4 5 5 3 5 5 4 14 22 29 34 39 38 35 37 31 30 29 27 27 22 21 22 23 23 24 20 17 18 18 19 18
6 4 7 1 2 8 2 1 5 6 4 6 2 5 6 8 6 8 11 16 21 24 30 34 36 34 31 28 27 29 25 24 24 24 23 25 23 26 26 22 20 20 22 21
9 5 5 12 5 1 1 5 6 5 4 1 5 5 2 9 7 11 13 16 19 24 25 24 24 30 27 34 25 22 24 30 29 25 22 23 23 24 26 27 25 22 23 22
8 5 3 10 7 4 3 4 5 5 4 6 6 6 3 4 4 16 15 15 19 22 21 20 19 21 26 32 36 26 15 17 20 23 29 24 24 24 27 26 25 26 27 26
12 4 8 12 9 5 5 4 4 6 4 5 6 4 5 2 6 7 14 18 19 21 20 19 18 17 20 24 31 31 25 24 18 11 10 22 24 26 25 26 26 27 27 29
4 7 6 7 8 6 5 10 8 4 4 6 6 10 10 11 10 20 22 21 21 22 23 19 16 14 16 20 23 26 31 28 27 29 20 17 18 26 32 29 27 25 25 27
1 2 3 1 4 6 5 8 7 7 5 2 5 7 3 8 10 10 24 22 24 26 21 18 14 12 11 13 15 17 23 27 29 30 28 28 29 28 22 26 28 29 26 25
2 3 3 2 2 4 3 7 6 5 4 7 6 10 7 6 9 20 23 25 26 24 24 23 17 11 8 9 10 13 16 20 24 25 28 28 32 27 24 25 30 31 32 29
5 3 4 2 3 2 6 4 0 5 6 6 4 8 17 24 29 29 28 30 29 27 28 26 18 14 10 9 9 9 11 12 14 16 17 20 24 26 27 27 27 26 29 32
8 4 1 5 3 5 3 4 5 6 7 9 8 6 11 15 15 11 26 30 30 30 26 23 18 16 12 9 7 6 6 6 7 7 9 11 13 15 17 21 22 22 28 32
4 6 4 1 6 6 7 2 4 4 4 3 7 9 13 20 5 6 30 30 30 26 25 24 20 14 12 10 9 7 8 10 8 7 8 10 13 16 16 16 18 17 15 16
3 4 7 1 1 6 7 8 13 7 7 5 18 24 26 10 12 27 27 29 27 25 28 22 18 14 10 8 7 9 10 11 9 8 9 11 13 14 17 18 18 17 18 21
4 6 4 4 4 8 8 3 7 8 2 6 23 26 29 22 18 28 28 28 28 29 25 21 17 13 11 10 11 14 15 12 13 13 12 11 14 14 15 18 17 18 19 19
1 2 4 6 6 8 14 5 8 7 8 8 26 29 32 28 35 34 35 34 31 29 25 19 16 12 10 11 14 16 15 16 17 16 14 12 14 17 16 16 16 16 17 16
4 3 1 3 1 11 18 5 4 10 10 7 20 34 33 31 36 38 36 34 31 26 24 20 12 8 8 9 10 11 16 17 18 17 15 16 17 20 19 16 15 15 15 16
4 6 2 4 5 12 4 21 23 8 3 13 13 31 32 30 39 41 37 32 28 25 20 13 8 7 8 9 10 11 10 12 15 15 17 20 23 21 19 15 15 15 15 16
4 4 2 4 2 3 12 24 19 15 8 15 24 28 29 31 41 38 34 31 28 23 17 11 6 4 5 5 6 8 10 12 15 18 20 19 15 15 14 14 14 17 18 21
Wind_Direction
59 88 237 204 194 204 163 179 221 209 194 143 210 237 247 200 216 230 234 208 196 209 213 206 209 208 201 195 190 184 173 169 181 182 192 193 184 177 175 126 164 165 206 217
35 217 240 140 173 168 153 185 256 81 152 143 191 230 245 198 224 225 223 211 198 205 208 210 210 207 207 202 198 198 190 179 180 197 200 197 197 200 198 174 173 177 198 222
180 215 140 188 175 157 196 199 214 224 122 44 98 292 236 249 234 220 225 213 207 210 207 207 206 209 207 205 206 204 206 205 198 191 201 206 209 207 198 199 201 199 234 252
216 251 228 229 228 156 213 210 199 173 128 219 171 267 251 192 235 227 217 214 207 206 209 206 206 207 213 210 209 210 213 214 210 207 218 213 224 216 208 211 198 217 247 254
230 184 150 216 241 156 230 155 197 183 95 75 239 26 266 144 217 225 221 209 210 209 209 206 206 211 213 212 213 214 215 212 214 215 219 216 219 216 225 216 227 238 246 258
228 242 177 225 240 193 79 71 46 53 60 318 214 161 281 191 212 218 213 206 206 207 208 206 207 213 212 210 214 217 217 221 222 225 229 229 230 222 233 228 230 238 246 239
327 270 251 187 262 149 96 88 52 25 4 226 69 132 250 278 218 204 202 192 202 205 205 202 205 205 209 211 216 221 219 224 227 233 239 241 241 235 231 233 236 235 236 246
158 318 180 176 184 194 172 153 154 194 187 239 144 221 249 290 71 169 217 202 206 205 202 205 206 205 208 217 218 221 225 226 230 235 243 248 246 245 233 234 230 240 240 244
154 273 284 195 199 143 181 151 182 99 1 57 280 290 310 67 77 97 165 192 200 208 206 211 214 218 218 228 222 225 231 232 228 236 240 246 246 240 237 230 235 240 248 236
220 282 227 283 141 124 161 162 92 13 135 234 293 286 243 294 171 147 153 203 200 212 214 213 218 215 228 226 228 229 236 229 229 238 243 249 247 241 240 239 242 236 233 227
144 121 268 30 216 163 71 188 54 113 125 157 220 258 220 225 226 164 194 219 215 211 214 220 221 226 229 227 234 226 227 228 231 246 249 248 250 245 244 242 241 237 235 232
204 157 243 235 270 218 108 172 137 128 217 153 152 269 190 248 234 169 202 218 212 214 219 226 223 221 224 225 227 221 231 239 246 236 234 245 253 248 249 247 243 240 238 238
177 213 251 322 349 6 145 158 120 113 89 184 145 258 340 342 193 187 185 197 203 206 217 223 226 226 228 226 229 231 255 230 235 249 246 244 251 248 251 256 251 245 243 243
163 147 170 222 215 157 143 175 127 128 113 167 216 246 277 248 195 174 181 188 201 206 205 213 218 224 232 236 234 237 237 220 215 226 231 245 246 251 248 250 249 249 246 244
175 189 170 223 212 157 153 168 169 120 162 157 240 200 215 202 196 192 186 178 184 192 196 213 220 222 227 236 240 239 239 240 236 240 244 230 245 262 251 247 245 247 244 245
339 172 177 291 205 182 162 172 168 147 145 203 180 247 263 197 192 177 182 177 171 170 175 179 179 181 194 207 220 229 234 244 240 237 246 250 247 265 251 248 248 246 241 244
86 172 65 224 125 81 23 211 183 164 180 146 157 214 150 180 179 195 187 182 169 175 179 178 174 178 192 218 223 227 237 243 245 250 249 258 251 253 247 262 259 256 247 243
118 298 115 170 60 177 237 285 182 175 174 206 169 158 187 195 201 195 193 186 176 174 177 177 173 176 185 188 191 202 218 223 229 236 242 248 250 251 254 267 257 249 245 242
127 131 99 128 184 275 270 186 182 165 241 193 198 156 178 154 156 198 202 198 188 184 186 183 178 174 176 181 200 219 227 216 218 225 240 242 245 253 259 266 260 262 250 251
74 102 100 140 154 205 239 199 137 88 306 192 150 142 137 135 139 237 206 207 199 191 185 181 180 183 197 201 213 237 253 270 256 269 287 277 267 268 269 267 260 266 259 245
116 116 168 145 127 289 252 283 129 113 235 214 184 166 157 169 195 199 196 198 198 195 181 182 182 186 192 209 252 262 261 265 269 278 275 290 277 284 279 272 268 266 262 260
143 137 177 113 138 246 208 235 164 194 256 234 194 187 173 184 168 165 172 180 179 176 174 177 180 188 204 224 247 241 240 249 246 260 270 288 279 287 281 269 267 265 265 267
52 226 160 175 209 303 310 277 158 176 149 188 199 189 182 164 162 167 162 165 167 168 170 175 185 192 217 241 239 244 249 241 238 248 264 278 291 305 288 270 262 261 260 256
327 345 59 352 243 329 318 17 9 319 175 211 208 198 181 169 168 165 165 166 166 170 172 177 190 226 248 245 245 254 253 254 244 251 268 281 290 299 295 278 266 264 257 258
253 327 15 289 320 341 22 2 3 332 238 156 171 189 179 175 170 169 169 170 174 175 180 189 212 247 268 271 268 270 263 254 255 268 280 289 287 283 282 270 278 274 278 276
228 217 156 238 209 239 294 327 344 358 9 184 171 180 187 193 176 175 178 183 183 182 185 190 227 265 300 292 269 256 248 257 270 282 294 298 285 279 268 264 262 271 279 283